Погода в Татарине

Россия / Воронежская область     50°35′13″N   39°07′22″E
темп.,
°C
ветер,
м/с
пор.,
м/с
влажн.,
%
обл.,
%
осадки,
мм/ч
давл.,
гПа
погр.,
м
13 мая, чт
чт1300:00+8вюв339056 0.0 101644
03:00+8ю2389100 0.1 101672
06:00+8всв239393 0.7 101687
09:00+13ююв488187 0.9 1016520
12:00+18ююв586548 0.4 10151204
15:00+19ю586286 0.9 10151411
18:00+18ююз117587 0.3 101443
21:00+15вюв2280100 0.3 101511
14 мая, пт
пт1400:00+14юв2287100 0.1 101519
03:00+13вюв3490100 0.1 101563
06:00+13вюв4988100 0.0 1014193
09:00+19юв6107396 0.0 1014485
12:00+23ююв71055100 0.0 10131177
15:00+25ю5855100 0.0 10131498
18:00+23ююв366996 0.0 1012231
21:00+19вюв49845 0.0 1011129
15 мая, сб
сб1500:00+17юв399125 0.0 1011155
03:00+16ю239383 0.0 101139
06:00+16юз2390100 0.0 101288
09:00+19юз3476100 0.0 1012317
12:00+23юз445797 0.0 10131122
15:00+24юз45494 0.0 10131563
18:00+22з35625 0.0 1013256
21:00+17сз117013 0.0 101411
16 мая, вс
вс1600:00+16св1170100 0.0 101411
03:00+15всв22744 0.0 101411
06:00+16всв2378100 0.0 101462
09:00+21всв456391 0.0 1014449
12:00+24всв556072 0.0 10131300
15:00+26юв45425 0.0 10121492
18:00+24вюв375964 0.0 1011231
21:00+19в3567100 0.0 101155
17 мая, пн
пн1700:00+17в4107156 0.0 1011157
03:00+16вюв4117136 0.0 1010177
06:00+16вюв41270100 0.0 1010218
09:00+21вюв6135779 0.0 1010469
12:00+25вюв8134742 0.0 1009973
15:00+26вюв81350100 0.0 10091365
18:00+24юв7145683 0.0 1008541
21:00+19вюв4107141 0.0 1009157